Probability
0 0 0 0 0 0 0 0 1 0 0 0 0 0 0 0 0 0 0 0 0 0 0 0 0 0 0 0 0 0 0 0 0 0 0 0 0 0 0 0 0 0 0 0
0 0 0 0 0 0 0 0 1 1 0 0 0 0 0 0 0 0 0 0 0 0 0 0 0 0 0 0 0 0 0 0 0 0 0 0 0 0 0 0 0 0 0 0
0 0 0 0 0 0 0 0 1 1 0 0 0 0 0 0 0 0 0 0 0 0 0 0 0 0 0 0 0 0 0 0 0 0 0 0 0 0 0 0 0 0 0 0
0 0 0 0 0 0 0 0 0 0 0 0 0 0 0 0 0 0 0 0 0 0 0 0 0 0 0 0 0 0 0 0 0 0 0 0 0 0 0 0 0 0 0 0
0 0 0 0 0 0 0 0 0 0 0 0 0 0 0 0 0 0 0 0 0 0 0 0 0 0 0 0 0 0 0 0 0 0 0 0 0 0 0 0 0 0 0 0
0 0 0 0 0 0 0 0 0 0 0 0 0 0 0 0 0 0 0 0 0 0 0 0 0 0 0 0 0 0 0 0 0 0 0 0 0 0 0 0 0 0 0 0
0 0 0 0 0 0 0 0 0 0 0 0 0 0 0 0 0 0 0 0 0 0 0 0 0 0 0 0 0 0 0 0 0 0 0 0 0 0 0 0 0 0 0 0
0 0 0 0 0 0 0 0 0 0 0 0 0 0 0 0 0 0 0 0 0 0 0 0 0 0 0 0 0 0 0 0 0 0 0 0 0 0 0 0 0 0 0 0
0 0 0 0 0 0 0 0 0 0 0 0 0 0 0 0 0 0 0 0 0 0 0 0 0 0 0 0 0 0 0 0 0 0 0 0 0 0 0 0 0 0 0 0
0 0 0 0 0 0 0 0 0 0 0 0 0 0 0 0 0 0 0 0 0 0 0 0 0 0 0 0 0 0 0 0 0 0 0 0 0 0 0 0 0 0 0 0
0 0 0 0 0 0 0 0 0 0 0 0 0 0 0 0 0 0 0 0 0 0 0 0 0 0 0 0 0 0 0 0 0 0 0 0 0 0 0 0 0 0 0 0
0 0 0 0 0 0 0 0 0 0 0 0 0 0 0 0 0 0 0 0 0 0 0 0 0 0 0 0 0 0 0 0 0 0 0 0 0 0 0 0 0 0 0 0
0 0 0 0 0 0 0 0 0 0 0 0 0 0 0 0 0 0 0 0 0 0 0 0 0 0 0 0 0 0 0 0 0 0 0 0 0 0 0 0 0 0 0 0
0 0 0 0 0 0 0 0 0 0 0 0 0 0 0 0 0 0 0 0 0 0 0 0 0 0 0 0 0 0 0 0 0 0 0 0 0 0 0 0 0 0 0 0
0 0 0 0 0 0 0 0 0 0 0 0 0 0 0 0 0 0 0 0 0 0 0 0 0 0 0 0 0 0 0 0 0 0 0 0 0 0 0 0 0 0 0 0
0 0 0 0 0 0 0 0 0 0 0 0 0 0 0 0 0 0 0 0 0 0 0 0 0 0 0 0 0 0 0 0 0 0 0 0 0 0 0 0 0 0 0 0
0 0 0 0 0 0 0 0 0 0 0 0 0 0 0 0 0 0 0 0 0 0 0 0 0 0 0 0 0 0 0 0 0 0 0 0 0 0 0 0 0 0 0 0
0 0 0 0 0 0 0 0 0 0 0 0 0 0 0 0 0 0 0 0 0 0 0 0 0 0 0 0 0 0 0 0 0 0 0 0 0 0 0 0 0 0 0 0
0 0 0 0 0 0 0 0 0 0 0 0 0 0 0 0 0 0 0 0 0 0 0 0 0 0 0 0 0 0 0 0 0 0 0 0 0 0 0 0 0 0 0 0
0 0 0 0 0 0 0 0 0 0 0 0 0 0 0 0 0 0 0 0 0 0 0 0 0 0 0 0 0 0 0 0 0 0 0 0 0 0 0 0 0 0 0 0
0 0 0 0 0 0 0 0 0 0 0 0 0 0 0 0 0 0 0 0 0 0 0 0 0 0 0 0 0 0 0 0 0 0 0 0 0 0 0 0 0 0 0 0
0 0 0 0 0 0 0 0 0 0 0 0 0 0 0 0 0 0 0 0 0 0 0 0 0 0 0 0 0 0 0 0 0 0 0 0 0 0 0 0 0 0 0 0
0 0 0 0 0 0 0 0 0 0 0 0 0 0 0 0 0 0 0 0 0 0 0 0 0 0 0 0 0 0 0 0 0 0 0 0 0 0 0 0 0 0 0 0
0 0 0 0 0 0 0 0 0 0 0 0 0 0 0 0 0 0 0 0 0 0 0 0 0 0 0 0 0 0 0 0 0 0 0 0 0 0 0 0 0 0 0 0
0 0 0 0 0 0 0 0 0 0 0 0 0 0 0 0 0 0 0 0 0 0 0 0 0 0 0 0 0 0 0 0 0 0 0 0 0 0 0 0 0 0 0 0
0 0 0 0 0 0 0 0 0 0 0 0 0 0 0 0 0 0 0 0 0 0 0 0 0 0 0 0 0 0 0 0 0 0 0 0 0 0 0 0 0 0 0 0
0 0 0 0 0 0 0 0 0 0 0 0 0 0 0 0 0 0 0 0 0 0 0 0 0 0 0 0 0 0 0 0 0 0 0 0 0 0 0 0 0 0 0 0
Wind_Speed
12 11 12 14 14 13 13 13 14 12 7 4 7 7 6 4 2 1 2 2 3 3 3 3 3 3 2 2 2 0 1 1 1 2 2 3 3 3 3 3 4 4 4 5
12 11 11 14 14 13 12 11 11 10 1 7 8 7 6 5 3 1 1 2 2 2 3 3 3 2 2 2 2 1 1 2 2 1 2 2 2 3 3 3 4 4 5 5
10 7 9 10 7 9 8 5 6 6 2 9 7 7 6 6 5 3 2 2 2 3 3 3 2 2 1 2 2 2 2 2 2 1 2 2 2 2 2 2 3 3 4 4
8 7 6 1 2 4 5 3 1 1 5 7 6 6 5 6 5 4 3 3 1 2 2 2 1 0 1 3 3 2 2 2 2 1 2 2 2 2 2 2 2 3 4 4
6 7 7 2 2 3 5 4 3 3 6 7 7 6 7 7 5 4 3 2 0 2 2 2 1 0 2 3 3 3 2 1 1 0 1 1 1 1 1 2 2 2 2 3
7 8 6 3 3 1 5 5 4 5 6 8 8 7 5 8 6 5 4 3 1 1 1 1 1 1 2 2 2 1 1 0 1 0 0 1 1 0 1 1 2 3 2 3
8 8 5 4 3 4 6 4 2 4 5 7 7 2 6 6 6 5 4 3 1 1 1 2 2 0 1 2 1 1 2 2 1 1 1 1 0 0 1 1 2 3 3 3
5 7 2 5 4 5 5 4 3 4 5 5 4 3 4 5 5 5 5 4 2 1 1 2 2 2 3 2 2 2 2 2 2 2 1 2 2 3 3 3 3 3 4 3
4 4 3 4 6 2 3 3 3 5 5 6 5 5 5 5 4 4 3 3 2 2 3 3 2 2 4 2 1 2 2 3 2 2 3 3 4 4 4 4 3 3 4 4
8 7 6 7 8 7 6 5 5 6 6 6 5 4 4 4 4 4 4 4 4 3 3 4 4 4 4 3 1 1 2 2 2 2 3 4 3 4 4 3 3 3 4 4
12 11 8 10 11 11 9 8 7 7 7 7 6 5 5 5 5 5 5 5 4 4 4 5 5 5 4 3 2 2 2 3 3 4 4 4 4 4 4 3 3 2 3 3
11 10 9 8 9 13 13 12 11 10 9 8 7 7 6 6 7 6 6 6 5 5 5 6 5 5 4 2 1 1 2 3 2 3 4 4 5 5 4 3 3 2 2 4
14 13 10 9 6 11 14 14 13 12 12 11 10 9 8 8 8 8 8 8 7 6 6 5 5 4 4 2 1 1 2 2 2 3 3 3 3 4 5 5 3 2 1 1
14 13 12 12 10 12 14 15 14 14 14 13 12 11 10 10 10 10 10 9 8 7 6 6 5 4 4 4 2 2 2 3 1 1 1 1 2 1 2 2 4 5 6 4
15 16 16 13 12 13 15 15 15 15 15 14 13 13 12 12 11 11 11 10 9 8 7 7 6 5 5 5 4 3 3 2 1 0 1 0 1 2 1 1 3 2 1 5
12 13 16 16 14 15 17 18 17 17 17 16 15 14 14 13 13 12 12 12 11 11 9 8 7 6 7 6 6 5 3 2 3 3 2 1 2 2 2 3 4 4 4 4
12 13 15 17 17 17 18 18 18 17 17 18 17 16 15 14 14 13 13 13 12 11 10 9 8 7 8 9 9 7 6 7 7 6 4 2 2 3 3 4 5 5 5 5
11 14 15 17 17 18 19 19 18 18 17 18 18 17 16 15 15 14 14 14 14 13 13 12 10 9 9 10 9 8 6 6 7 6 4 4 3 4 4 4 5 6 5 2
9 10 14 17 17 17 17 18 18 18 18 17 17 17 16 15 15 15 14 14 14 15 14 14 13 12 12 11 9 9 9 8 7 6 6 4 5 7 6 5 6 6 5 5
12 12 11 14 16 17 17 17 18 17 17 17 17 16 16 15 15 15 14 14 13 12 13 14 14 14 14 13 12 11 11 10 9 8 7 7 7 7 6 6 6 6 6 5
14 15 12 11 12 15 17 17 17 17 17 17 17 17 16 15 15 13 13 13 13 13 13 11 12 13 13 11 13 12 11 10 10 9 8 7 7 7 7 6 6 6 6 6
13 14 14 11 9 11 13 15 16 17 17 17 18 17 16 15 15 13 14 11 10 11 12 11 13 13 12 12 12 13 12 11 10 9 8 8 8 8 7 7 7 6 6 6
13 12 12 11 9 9 11 12 15 15 16 17 17 17 17 15 12 12 12 12 11 12 12 11 10 13 15 12 12 12 12 12 11 9 8 8 8 8 7 8 7 7 6 6
15 13 11 10 8 8 9 11 12 12 14 14 15 15 14 13 12 12 12 11 12 13 12 10 12 16 16 12 12 12 12 11 10 9 9 8 8 8 7 7 7 7 6 7
16 15 13 11 10 8 7 9 11 12 13 11 12 13 12 11 12 11 12 12 13 15 13 12 16 17 14 13 13 12 11 10 9 7 8 8 8 7 8 7 7 7 6 6
16 13 12 11 10 8 8 8 9 10 11 11 11 9 9 8 10 10 9 12 15 14 13 11 13 14 13 14 13 13 11 9 8 9 9 8 8 8 8 8 9 7 6 6
15 13 11 11 11 11 10 10 10 10 10 11 11 10 9 9 9 10 11 10 11 12 13 12 12 12 13 13 12 11 9 8 7 8 7 6 7 8 8 9 7 6 6 6
Wind_Direction
278 277 276 276 278 279 273 271 275 286 299 130 148 141 126 115 95 346 320 338 358 2 10 7 16 22 35 39 43 9 172 148 136 130 130 116 100 86 73 51 41 32 21 21
281 272 273 272 270 269 271 279 283 284 276 109 128 137 140 148 160 189 277 318 338 347 354 358 0 7 52 69 56 58 84 95 87 101 124 113 104 109 97 71 49 40 35 34
290 298 280 272 276 271 275 286 299 300 125 147 159 163 164 169 180 192 237 276 316 340 341 341 346 351 55 98 99 90 80 80 81 94 102 94 108 117 102 76 58 47 42 45
295 302 274 44 6 302 290 281 286 124 145 166 163 164 174 186 191 195 205 218 258 317 333 331 326 68 129 132 126 115 96 80 63 57 73 69 71 66 54 35 40 41 37 48
292 295 292 155 197 254 278 275 201 193 170 172 164 188 196 193 200 198 185 176 231 327 335 330 335 36 175 164 158 148 134 111 97 117 130 108 72 46 16 12 7 359 36 45
284 298 300 52 103 214 278 264 152 192 191 183 192 230 156 151 170 169 169 167 198 311 345 359 356 263 211 162 160 139 112 94 60 48 151 170 138 353 320 348 335 332 2 24
277 279 286 82 135 212 260 39 92 215 206 199 213 326 100 142 155 162 165 164 196 248 43 39 11 317 128 90 44 26 36 43 36 48 45 353 263 346 335 343 342 340 340 358
270 273 339 117 194 248 351 17 279 226 204 200 193 153 154 158 159 167 174 172 177 163 92 67 61 97 101 83 26 15 35 37 36 48 47 50 58 54 40 22 12 354 342 341
288 310 32 226 242 270 300 276 232 204 188 192 197 190 177 168 166 170 170 151 158 151 129 111 98 106 105 83 49 47 70 77 65 61 69 65 64 56 48 35 23 8 351 340
260 260 239 225 228 224 225 230 203 198 191 197 199 185 175 166 158 154 149 148 147 141 136 120 105 100 103 103 96 132 134 132 130 103 89 81 73 66 60 41 33 31 10 354
256 264 260 233 226 218 207 209 202 197 195 197 190 180 172 161 153 146 141 136 137 135 128 119 117 118 114 114 123 136 139 145 149 142 131 118 104 87 89 88 63 32 11 355
264 265 252 252 224 211 203 204 203 198 195 193 191 179 172 162 156 154 148 144 142 136 129 126 130 128 128 135 142 118 123 122 127 125 128 136 133 125 87 74 90 66 355 333
260 267 261 253 236 208 203 204 202 200 197 193 191 185 177 169 168 169 165 166 162 155 148 148 150 145 147 150 133 81 67 76 114 121 133 148 150 150 147 151 160 171 206 283
251 255 249 235 225 212 208 204 202 201 198 195 190 190 186 181 181 184 185 182 180 179 180 184 189 183 177 174 189 216 209 140 217 146 138 144 141 184 191 177 177 178 180 178
250 234 236 239 225 210 204 202 201 200 198 197 193 192 193 194 193 195 196 195 194 201 206 208 212 206 200 200 199 218 234 186 183 40 233 215 269 264 298 325 309 302 251 166
263 238 231 234 223 209 203 203 203 203 200 198 198 198 200 203 205 204 203 203 205 213 215 219 225 220 207 209 206 206 201 70 280 253 228 217 249 288 310 313 308 317 314 327
259 239 224 222 220 213 208 206 206 205 202 200 201 202 206 209 212 213 212 211 213 220 221 221 225 220 210 206 220 227 204 167 197 243 239 249 279 297 310 310 315 320 324 42
272 258 240 226 221 215 210 207 207 207 206 203 203 206 209 212 218 220 220 219 216 220 224 224 221 218 216 211 218 242 228 214 207 234 236 240 266 273 280 290 300 301 306 175
321 290 263 245 234 221 210 206 205 206 206 205 206 209 211 217 222 226 226 223 221 221 223 223 214 215 217 213 212 226 238 235 230 232 239 214 233 257 266 277 288 295 298 304
348 334 296 261 239 225 213 206 203 203 204 206 209 213 217 221 225 227 227 225 224 228 220 214 202 210 219 210 207 228 230 234 237 236 235 241 240 249 257 265 276 283 285 285
352 344 326 286 250 229 216 206 201 201 202 205 209 215 220 224 227 225 224 226 222 223 228 207 204 210 213 206 194 229 234 232 235 240 241 242 247 251 255 261 265 266 269 272
343 341 334 314 272 240 222 212 205 203 202 205 209 215 220 224 225 221 220 230 229 195 208 215 213 213 207 200 211 226 233 235 236 237 237 241 247 250 250 253 259 263 265 266
317 321 324 321 298 262 237 224 216 210 208 208 210 215 220 224 225 221 221 215 224 193 204 222 211 182 178 205 226 229 231 233 235 236 235 240 243 245 249 252 252 256 261 263
292 291 296 303 302 275 247 231 223 219 219 217 219 221 226 229 228 228 232 217 204 185 207 211 178 171 182 215 226 230 231 231 231 235 238 238 241 243 243 246 252 256 256 258
276 274 272 272 272 267 259 242 227 220 220 218 220 223 227 231 237 233 227 218 188 181 208 193 174 177 196 220 225 228 231 231 230 231 233 240 243 245 245 246 248 252 253 254
270 265 260 254 255 260 258 250 236 218 214 216 216 218 224 225 231 235 225 218 200 195 213 202 179 186 212 222 226 228 231 220 206 219 232 237 243 247 249 250 251 249 247 247
267 262 256 251 245 240 243 245 245 241 233 229 225 218 220 226 227 228 224 219 204 197 211 215 202 196 211 220 224 224 223 220 214 215 221 231 244 248 250 248 249 244 238 239